sat.trackr.live / text

‹ back to catalog

STARLINK-34003

NORAD 63882 · 2025-094U

PAYLOAD ACTIVE UNKNOWN

§ Identity

Operator
Country
US
Launch date
2025-05-10
Launch site
AFWTR
Launch vehicle
Mass (kg)
RCS (m²)

Purposes: comms

External: N2YO · Heavens-Above · Gunter

§ Orbital elements

Epoch: 2026-05-24T23:52:11.062272Z

Period
93.44 min
Inclination
70.0023°
Eccentricity
0.0003339
Mean motion
15.41036032 rev/d
Perigee alt
440.8 km
Apogee alt
445.3 km
Semi-major
6,821.2 km
B*
4.0446e-4
RAAN
359.5461°
Arg perigee
270.6323°
Mean anomaly
89.4475°
Rev number
5,969

§ Raw data

STARLINK-340031 63882U 25094U   26144.99457248  .00016642  00000+0  40446-3 0  99912 63882  70.0023 359.5461 0003339 270.6323  89.4475 15.41036032 59696

JSON: /api/v1/satellites/63882 · /tle

For live sub-satellite position, see the globe view (requires WebGL).

§ Visibility from observer

Set your observer location to see the next 7 days of passes ≥ 10°. The values pass through the URL so the page stays shareable.

No JS? Fill the form by hand. The geolocation button needs JavaScript.